TimeMDT,TemperatureF,Dew PointF,Humidity,Sea Level PressureIn,VisibilityMPH,Wind Direction,Wind SpeedMPH,Gust SpeedMPH,PrecipitationIn,Events,Conditions,WindDirDegrees,DateUTC
12:15 AM,41.0,19.4,42,30.24,10.0,WNW,4.6,-,N/A,,Clear,300,2012-10-28 06:15:00
12:35 AM,41.0,17.6,39,30.24,10.0,West,5.8,-,N/A,,Clear,280,2012-10-28 06:35:00
12:55 AM,42.8,17.6,36,30.23,10.0,Calm,Calm,-,N/A,,Clear,0,2012-10-28 06:55:00
1:15 AM,41.0,17.6,39,30.23,10.0,West,3.5,-,N/A,,Clear,260,2012-10-28 07:15:00
1:35 AM,39.2,17.6,42,30.23,10.0,West,4.6,-,N/A,,Clear,260,2012-10-28 07:35:00
1:55 AM,39.2,17.6,42,30.23,10.0,West,6.9,-,N/A,,Clear,270,2012-10-28 07:55:00
2:15 AM,41.0,17.6,39,30.23,10.0,West,8.1,-,N/A,,Clear,260,2012-10-28 08:15:00
2:35 AM,39.2,17.6,42,30.23,10.0,WSW,5.8,-,N/A,,Clear,250,2012-10-28 08:35:00
2:55 AM,41.0,15.8,36,30.23,10.0,West,6.9,-,N/A,,Clear,260,2012-10-28 08:55:00
3:15 AM,41.0,17.6,39,30.23,10.0,WNW,5.8,-,N/A,,Clear,290,2012-10-28 09:15:00
3:35 AM,41.0,15.8,36,30.22,10.0,WNW,6.9,-,N/A,,Clear,290,2012-10-28 09:35:00
3:55 AM,41.0,15.8,36,30.23,10.0,West,5.8,-,N/A,,Clear,270,2012-10-28 09:55:00
4:15 AM,41.0,14.0,33,30.23,10.0,West,6.9,-,N/A,,Clear,280,2012-10-28 10:15:00
4:35 AM,39.2,15.8,39,30.23,10.0,West,9.2,-,N/A,,Clear,270,2012-10-28 10:35:00
4:55 AM,39.2,15.8,39,30.23,10.0,West,9.2,-,N/A,,Clear,260,2012-10-28 10:55:00
5:15 AM,39.2,15.8,39,30.23,10.0,West,8.1,-,N/A,,Clear,260,2012-10-28 11:15:00
5:35 AM,39.2,15.8,39,30.24,10.0,WSW,6.9,-,N/A,,Clear,250,2012-10-28 11:35:00
5:55 AM,41.0,14.0,33,30.24,10.0,WNW,4.6,-,N/A,,Clear,290,2012-10-28 11:55:00
6:15 AM,41.0,14.0,33,30.24,10.0,WSW,5.8,-,N/A,,Clear,240,2012-10-28 12:15:00
6:35 AM,41.0,14.0,33,30.25,10.0,Calm,Calm,-,N/A,,Clear,0,2012-10-28 12:35:00
6:55 AM,39.2,14.0,36,30.25,10.0,Calm,Calm,-,N/A,,Clear,0,2012-10-28 12:55:00
7:15 AM,39.2,14.0,36,30.26,10.0,Calm,Calm,-,N/A,,Clear,0,2012-10-28 13:15:00
7:35 AM,41.0,14.0,33,30.26,10.0,WNW,3.5,-,N/A,,Clear,300,2012-10-28 13:35:00
7:55 AM,42.8,15.8,34,30.26,10.0,WNW,3.5,-,N/A,,Clear,300,2012-10-28 13:55:00
8:15 AM,44.6,15.8,31,30.27,10.0,Calm,Calm,-,N/A,,Clear,0,2012-10-28 14:15:00
8:55 AM,48.2,17.6,30,30.28,10.0,Calm,Calm,-,N/A,,Clear,0,2012-10-28 14:55:00
9:15 AM,48.2,17.6,30,30.28,10.0,Calm,Calm,-,N/A,,Clear,0,2012-10-28 15:15:00
9:35 AM,50.0,19.4,30,30.28,10.0,Calm,Calm,-,N/A,,Clear,0,2012-10-28 15:35:00
9:55 AM,53.6,19.4,26,30.28,10.0,NE,3.5,-,N/A,,Clear,40,2012-10-28 15:55:00
10:15 AM,55.4,19.4,25,30.28,10.0,NW,3.5,-,N/A,,Clear,310,2012-10-28 16:15:00
10:35 AM,55.4,17.6,23,30.28,10.0,Calm,Calm,-,N/A,,Clear,0,2012-10-28 16:35:00
10:55 AM,57.2,15.8,20,30.28,10.0,NNW,8.1,-,N/A,,Clear,340,2012-10-28 16:55:00
11:15 AM,59.0,17.6,20,30.27,10.0,NW,8.1,-,N/A,,Clear,320,2012-10-28 17:15:00
11:35 AM,59.0,17.6,20,30.27,10.0,NNW,6.9,-,N/A,,Clear,330,2012-10-28 17:35:00
11:55 AM,60.8,15.8,17,30.27,10.0,North,12.7,18.4,N/A,,Clear,360,2012-10-28 17:55:00
12:15 PM,59.0,14.0,17,30.27,10.0,NW,13.8,19.6,N/A,,Clear,310,2012-10-28 18:15:00
12:35 PM,59.0,17.6,20,30.27,10.0,NNW,12.7,17.3,N/A,,Clear,340,2012-10-28 18:35:00
12:55 PM,59.0,17.6,20,30.26,10.0,NW,8.1,-,N/A,,Clear,310,2012-10-28 18:55:00
1:15 PM,59.0,17.6,20,30.25,10.0,NNW,11.5,-,N/A,,Clear,340,2012-10-28 19:15:00
1:35 PM,62.6,17.6,18,30.24,10.0,NNW,6.9,20.7,N/A,,Clear,340,2012-10-28 19:35:00
1:55 PM,62.6,17.6,18,30.23,10.0,North,13.8,19.6,N/A,,Clear,350,2012-10-28 19:55:00
2:15 PM,64.4,17.6,16,30.22,10.0,NNW,13.8,23.0,N/A,,Clear,330,2012-10-28 20:15:00
2:35 PM,64.4,17.6,16,30.21,10.0,North,12.7,23.0,N/A,,Clear,350,2012-10-28 20:35:00
2:55 PM,64.4,17.6,16,30.20,10.0,NNW,16.1,24.2,N/A,,Clear,330,2012-10-28 20:55:00
3:15 PM,64.4,15.8,15,30.20,10.0,WNW,16.1,21.9,N/A,,Clear,300,2012-10-28 21:15:00
3:55 PM,66.2,15.8,14,30.20,10.0,NW,11.5,20.7,N/A,,Partly Cloudy,320,2012-10-28 21:55:00
4:15 PM,64.4,15.8,15,30.20,10.0,NNW,12.7,21.9,N/A,,Clear,330,2012-10-28 22:15:00
4:35 PM,62.6,15.8,16,30.20,10.0,NW,12.7,21.9,N/A,,Clear,310,2012-10-28 22:35:00
4:55 PM,62.6,15.8,16,30.20,10.0,NW,13.8,23.0,N/A,,Clear,310,2012-10-28 22:55:00
5:15 PM,60.8,15.8,17,30.20,10.0,NW,15.0,19.6,N/A,,Clear,310,2012-10-28 23:15:00
5:35 PM,59.0,17.6,20,30.21,10.0,NW,5.8,-,N/A,,Clear,320,2012-10-28 23:35:00
5:55 PM,59.0,15.8,19,30.21,10.0,NW,8.1,-,N/A,,Clear,320,2012-10-28 23:55:00
6:15 PM,55.4,15.8,21,30.22,10.0,NW,3.5,-,N/A,,Clear,310,2012-10-29 00:15:00
6:35 PM,55.4,15.8,21,30.22,10.0,West,3.5,-,N/A,,Clear,280,2012-10-29 00:35:00
6:55 PM,53.6,15.8,22,30.22,10.0,West,6.9,-,N/A,,Clear,280,2012-10-29 00:55:00
7:15 PM,53.6,15.8,22,30.23,10.0,WSW,4.6,-,N/A,,Clear,250,2012-10-29 01:15:00
7:35 PM,53.6,15.8,22,30.24,10.0,Calm,Calm,-,N/A,,Clear,0,2012-10-29 01:35:00
7:55 PM,53.6,15.8,22,30.24,10.0,WNW,3.5,-,N/A,,Clear,300,2012-10-29 01:55:00
8:15 PM,51.8,15.8,24,30.24,10.0,Calm,Calm,-,N/A,,Clear,0,2012-10-29 02:15:00
8:35 PM,51.8,15.8,24,30.25,10.0,WSW,3.5,-,N/A,,Clear,240,2012-10-29 02:35:00
8:55 PM,50.0,15.8,26,30.25,10.0,West,5.8,-,N/A,,Clear,260,2012-10-29 02:55:00
9:15 PM,50.0,15.8,26,30.26,6.0,West,6.9,-,N/A,,Haze,260,2012-10-29 03:15:00
9:35 PM,50.0,15.8,26,30.26,5.0,West,9.2,-,N/A,,Haze,270,2012-10-29 03:35:00
9:55 PM,46.4,14.0,27,30.27,5.0,SSW,4.6,-,N/A,,Haze,200,2012-10-29 03:55:00
10:15 PM,48.2,14.0,25,30.27,10.0,West,4.6,-,N/A,,Clear,280,2012-10-29 04:15:00
10:35 PM,46.4,14.0,27,30.27,10.0,South,4.6,-,N/A,,Clear,180,2012-10-29 04:35:00
10:55 PM,48.2,14.0,25,30.28,10.0,WSW,3.5,-,N/A,,Clear,240,2012-10-29 04:55:00
11:15 PM,44.6,14.0,29,30.27,10.0,West,9.2,-,N/A,,Clear,270,2012-10-29 05:15:00
11:35 PM,46.4,14.0,27,30.27,10.0,West,8.1,-,N/A,,Clear,280,2012-10-29 05:35:00
11:55 PM,46.4,14.0,27,30.28,10.0,West,9.2,-,N/A,,Clear,280,2012-10-29 05:55:00